Location: Unspecified
(0.0000°N, 0.0000°E)
Time: 20:49:49
(UTC+00:00)

Envisat - Pass Details

Date: 30 May 2023
Orbit: 763 x 765 km, 98.2° (Epoch: 05 June)

Event Time Altitude Azimuth Distance (km) Brightness Sun altitude
Rises 03:29:31 0° 10° (N) 3,210 6.7 -34.0°
Reaches altitude 10° 03:31:49 10° 10° (N) 2,287 5.8 -33.5°
Enters shadow 03:34:01 27° 8° (N) 1,440 4.6 -33.0°
